Home   Weather   Gjøvik   Past weeks
Flag for Norway

Past Weather in Gjøvik, Norway — Yesterday and Last 2 Weeks

Now
37 °F

Chilly.


Feels Like: 37 °F
Forecast: 45 / 36 °F
Wind: 2 mph from South

Location: Lillehammer-Saetherengen

Current Time: Oct 21, 2019 at 5:28:46 pm

Latest Report: Oct 21, 2019 at 4:00 pm


Visibility: N/A

Pressure: 30.08 "Hg

Humidity: 87%

Dew Point: 34 °F

Location of GjøvikLocation

Past Weather in Gjøvik — Graph

°F

Gjøvik Temperature Yesterday

Maximum temperature yesterday: 42 °F (at 3:00 pm)
Minimum temperature yesterday: 37 °F (at 11:00 pm)
Average temperature yesterday: 40 °F

High & Low Weather Summary for the Past Weeks

 TemperatureHumidityPressure
High48 °F (Oct 14, 5:00 pm)100% (Oct 10, 7:00 am)30.29 "Hg (Oct 10, 7:00 am)
Low26 °F (Oct 7, 9:00 am)56% (Oct 7, 4:00 pm)29.21 "Hg (Oct 11, 10:00 pm)
Average39 °F91%29.72 "Hg
* Reported Oct 6 3:00 pm — Oct 21 3:00 pm, Gjøvik. Weather by CustomWeather, © 2019

Note: Actual official high and low records may vary slightly from our data, if they occured in-between our weather recording intervals... More about our weather records

Advertising

Gjøvik Weather History for the Previous 24 Hours

Scroll right to see more
 ConditionsComfort  
Time TempWeatherWind HumidityBarometerVisibility
3:00 pm
Mon, Oct 21
38 °FChilly.2 mph86%30.09 "HgN/A
2:00 pm38 °FChilly.1 mph86%30.10 "HgN/A
1:00 pm37 °FChilly.1 mph87%30.12 "HgN/A
12:00 pm36 °FChilly.1 mph88%30.14 "HgN/A
11:00 am36 °FChilly.1 mph91%30.14 "HgN/A
10:00 am35 °FChilly.1 mph90%30.14 "HgN/A
9:00 am35 °FChilly.1 mph94%30.12 "HgN/A
8:00 am35 °FChilly.1 mph93%30.12 "HgN/A
7:00 am36 °FChilly.2 mph94%30.11 "HgN/A
6:00 am36 °FChilly.1 mph93%30.10 "HgN/A
5:00 am36 °FChilly.1 mph96%30.09 "HgN/A
4:00 am36 °FChilly.1 mph94%30.07 "HgN/A
3:00 am35 °FChilly.1 mph95%30.07 "HgN/A
2:00 am35 °FChilly.1 mph94%30.06 "HgN/A
1:00 am37 °FChilly.1 mph91%30.03 "HgN/A
12:00 am37 °FChilly.1 mph93%30.02 "HgN/A
11:00 pm
Sun, Oct 20
37 °FChilly.No wind95%30.01 "HgN/A
10:00 pm38 °FChilly.1 mph93%29.99 "HgN/A
9:00 pm39 °FChilly.No wind94%29.98 "HgN/A
8:00 pm39 °FChilly.No wind93%29.96 "HgN/A
7:00 pm40 °FChilly.No wind91%29.94 "HgN/A
6:00 pm40 °FQuite cool.1 mph89%29.93 "HgN/A
5:00 pm41 °FQuite cool.1 mph88%29.91 "HgN/A
Weather by CustomWeather, © 2019

See weather overview